Weather History for KCMX - July, 2013

Change the Weather History Date:

Tuesday, July 9, 2013

  Actual Average Record
Temperature  
Mean Temperature 64 °F -  
Max Temperature 72 °F 75 °F 90 °F (1988)
Min Temperature 55 °F 56 °F 40 °F (1968)
Degree Days  
Heating Degree Days 2    
Growing Degree Days 14 (Base 50)    
Moisture  
Dew Point 62 °F    
Average Humidity 96    
Maximum Humidity 100    
Minimum Humidity 83    
Precipitation  
Precipitation 0.32 in - - ()
Sea Level Pressure  
Sea Level Pressure 29.87 in    
Wind  
Wind Speed 3 mph (ENE)    
Max Wind Speed 13 mph    
Max Gust Speed 18 mph    
Visibility 3 miles    
Events Fog , Rain    
Averages and records for this station are not official NWS values.
T = Trace of Precipitation, MM = Missing Value Source: NWS Daily Summary

Daily Weather History Graph

Daily Weather History Graph

Search for Another Location

Airport or City:

Trip Planner

Search our weather history database for the weather conditions in past years. The results will help you decide how hot, cold, wet, or windy it might be!

Date:

Astronomy

Jul. 09, 2013 Rise Set
Actual Time 6:08 AM EDT 9:49 PM EDT
Civil Twilight 5:29 AM EDT 10:28 PM EDT
Nautical Twilight 4:36 AM EDT 11:21 PM EDT
Astronomical Twilight 3:22 AM EDT 12:33 AM EDT
Moon 7:41 AM EDT (7/9) 10:15 PM EDT (7/9)
Length of Visible Light 16h 59m
Length of Day
15h 41m
New Moon, 2% of the Moon is Illuminated
Jul 9
New Moon
Jul 15
First Quarter
Jul 22
Full
Jul 29
Last Quarter
Aug 6
New

Hourly Weather History & Observations

Time (EDT) Temp. Dew Point Humidity Pressure Visibility Wind Dir Wind Speed Gust Speed Precip Events Conditions
12:25 AM 57.2 °F 57.2 °F 100% 30.01 in 0.2 mi Calm Calm - N/A Fog Fog
12:53 AM 57.9 °F 57.0 °F 97% 30.01 in 0.2 mi East 3.5 mph - N/A Fog Fog
1:53 AM 57.9 °F 57.9 °F 100% 30.01 in 0.2 mi Calm Calm - N/A Fog Fog
2:53 AM 55.9 °F 55.0 °F 97% 30.00 in 0.8 mi Calm Calm - N/A   Mist
2:58 AM 55.4 °F 55.4 °F 100% 30.00 in 1.2 mi Calm Calm - N/A   Scattered Clouds
3:02 AM 55.4 °F 55.4 °F 100% 30.00 in 3.0 mi Calm Calm - N/A   Partly Cloudy
3:31 AM 55.4 °F 55.4 °F 100% 29.99 in 1.0 mi Calm Calm - N/A   Mist
3:38 AM 55.4 °F 55.4 °F 100% 29.99 in 0.5 mi Calm Calm - N/A Fog Fog
3:53 AM 55.9 °F 55.9 °F 100% 29.99 in 0.2 mi Calm Calm - N/A Fog Fog
4:05 AM 55.4 °F 55.4 °F 100% 29.99 in 0.2 mi Calm Calm - N/A Fog Fog
4:16 AM 55.4 °F 55.4 °F 100% 29.99 in 1.0 mi Calm Calm - N/A   Mist
4:20 AM 55.4 °F 53.6 °F 94% 29.99 in 2.0 mi Calm Calm - N/A   Scattered Clouds
4:31 AM 55.4 °F 55.4 °F 100% 29.98 in 1.0 mi Calm Calm - N/A   Mist
4:38 AM 55.4 °F 55.4 °F 100% 29.98 in 0.5 mi Calm Calm - N/A Fog Fog
4:53 AM 55.0 °F 54.0 °F 96% 29.98 in 0.5 mi Calm Calm - N/A Fog Fog
5:10 AM 55.4 °F 55.4 °F 100% 29.97 in 0.2 mi Calm Calm - N/A Fog Fog
5:21 AM 55.4 °F 55.4 °F 100% 29.97 in 1.0 mi Calm Calm - N/A   Overcast
5:37 AM 57.2 °F 57.2 °F 100% 29.96 in 0.2 mi Calm Calm - N/A Fog Fog
5:53 AM 57.9 °F 57.0 °F 97% 29.97 in 0.2 mi Calm Calm - N/A Fog Fog
6:53 AM 57.9 °F 57.9 °F 100% 29.96 in 0.2 mi East 3.5 mph - N/A Fog Fog
7:37 AM 60.8 °F 59.0 °F 94% 29.95 in 0.2 mi ENE 5.8 mph - N/A Fog Fog
7:53 AM 60.1 °F 59.0 °F 96% 29.95 in 0.2 mi East 5.8 mph - N/A Fog Fog
8:24 AM 60.8 °F 60.8 °F 100% 29.95 in 0.2 mi East 5.8 mph - N/A Fog Fog
8:53 AM 61.0 °F 60.1 °F 97% 29.94 in 0.2 mi East 5.8 mph - 0.01 in Fog Fog
9:53 AM 62.1 °F 61.0 °F 96% 29.91 in 0.2 mi East 5.8 mph - N/A Fog Fog
10:53 AM 63.0 °F 62.1 °F 97% 29.90 in 0.2 mi ESE 5.8 mph - N/A Fog Fog
11:29 AM 64.4 °F 62.6 °F 94% 29.88 in 0.2 mi East 6.9 mph - N/A Fog Fog
11:53 AM 64.0 °F 64.0 °F 100% 29.89 in 0.5 mi ESE 6.9 mph - N/A Fog Fog
12:13 PM 64.4 °F 64.4 °F 100% 29.89 in 1.5 mi ESE 3.5 mph - N/A   Overcast
12:21 PM 64.4 °F 64.4 °F 100% 29.89 in 2.5 mi ESE 5.8 mph - N/A   Overcast
12:32 PM 64.4 °F 64.4 °F 100% 29.89 in 5.0 mi SE 5.8 mph - N/A   Overcast
12:53 PM 68.0 °F 64.9 °F 90% 29.87 in 9.0 mi ESE 5.8 mph - N/A   Mostly Cloudy
1:07 PM 69.8 °F 64.4 °F 83% 29.87 in 10.0 mi East 6.9 mph - N/A   Scattered Clouds
1:53 PM 69.1 °F 64.9 °F 87% 29.84 in 10.0 mi East 8.1 mph - N/A   Clear
2:53 PM 71.1 °F 66.0 °F 84% 29.83 in 10.0 mi ESE 3.5 mph - N/A   Clear
3:53 PM 72.0 °F 66.9 °F 84% 29.81 in 10.0 mi ESE 3.5 mph - N/A   Mostly Cloudy
4:53 PM 71.1 °F 68.0 °F 90% 29.79 in 5.0 mi Calm Calm - 0.03 in Rain Light Rain
5:26 PM 69.8 °F 68.0 °F 94% 29.79 in 1.8 mi SSE 12.7 mph 18.4 mph 0.06 in Rain Heavy Rain
5:44 PM 69.8 °F 68.0 °F 94% 29.78 in 2.5 mi South 8.1 mph - 0.11 in Rain Rain
5:53 PM 70.0 °F 68.0 °F 93% 29.77 in 2.5 mi South 3.5 mph - 0.13 in Rain Rain
6:05 PM 69.8 °F 68.0 °F 94% 29.77 in 3.0 mi Calm Calm - 0.02 in Rain Light Rain
6:13 PM 69.8 °F 68.0 °F 94% 29.77 in 2.0 mi SSE 3.5 mph - 0.03 in Rain Rain
6:26 PM 69.8 °F 68.0 °F 94% 29.77 in 3.0 mi Calm Calm - 0.04 in Rain Light Rain
6:53 PM 70.0 °F 68.0 °F 93% 29.76 in 3.0 mi Calm Calm - 0.06 in Rain Light Rain
7:03 PM 69.8 °F 68.0 °F 94% 29.76 in 2.5 mi Calm Calm - 0.01 in Rain Light Rain
7:10 PM 69.8 °F 66.2 °F 88% 29.76 in 2.5 mi NNW 4.6 mph - 0.02 in Rain Rain
7:27 PM 68.0 °F 66.2 °F 94% 29.75 in 3.0 mi NNW 4.6 mph - 0.04 in Rain Light Rain
7:35 PM 68.0 °F 66.2 °F 94% 29.75 in 3.0 mi NNW 5.8 mph - 0.05 in Rain Light Rain
7:42 PM 66.2 °F 66.2 °F 100% 29.75 in 4.0 mi NNW 5.8 mph - 0.05 in Rain Light Rain
7:53 PM 66.9 °F 64.9 °F 93% 29.75 in 3.0 mi North 4.6 mph - 0.06 in Rain Light Rain
8:10 PM 66.2 °F 64.4 °F 94% 29.75 in 2.0 mi NNW 6.9 mph - 0.02 in Rain Light Rain
8:26 PM 66.2 °F 64.4 °F 94% 29.74 in 5.0 mi NNW 8.1 mph - 0.03 in Rain Light Rain
8:53 PM 66.0 °F 64.0 °F 93% 29.73 in 6.0 mi NNW 4.6 mph - 0.03 in Rain Light Rain
9:29 PM 64.4 °F 64.4 °F 100% 29.73 in 10.0 mi North 6.9 mph - 0.00 in   Overcast
9:44 PM 64.4 °F 64.4 °F 100% 29.73 in 10.0 mi North 8.1 mph - 0.00 in   Overcast
9:53 PM 64.9 °F 64.0 °F 97% 29.73 in 10.0 mi North 6.9 mph - 0.00 in   Overcast
10:53 PM 64.9 °F 64.0 °F 97% 29.73 in 10.0 mi NW 4.6 mph - 0.00 in   Overcast
11:35 PM 64.4 °F 64.4 °F 100% 29.73 in 10.0 mi NW 5.8 mph - N/A   Overcast
11:43 PM 64.4 °F 64.4 °F 100% 29.73 in 9.0 mi WNW 6.9 mph - N/A   Overcast
11:53 PM 64.9 °F 64.0 °F 97% 29.73 in 4.0 mi West 8.1 mph - N/A   Overcast
11:58 PM 64.4 °F 64.4 °F 100% 29.74 in 1.5 mi West 10.4 mph - N/A   Overcast